Time,TemperatureF,DewpointF,PressureIn,WindDirection,WindDirectionDegrees,WindSpeedMPH,WindSpeedGustMPH,Humidity,HourlyPrecipIn,Conditions,Clouds,dailyrainin,SoftwareType,DateUTC
2013-07-02 00:32:00,63.0,56.0,30.02,NNE,22,0.0,0.0,78,0.00,,,0.00,,2013-07-02 04:32:00,
2013-07-02 00:42:00,63.0,56.0,30.02,NE,45,0.0,0.0,78,0.00,,,0.00,,2013-07-02 04:42:00,
2013-07-02 00:53:00,63.0,56.0,30.02,NE,45,0.0,0.0,78,0.00,,,0.00,,2013-07-02 04:53:00,
2013-07-02 01:01:00,63.0,56.0,30.03,NE,45,0.0,0.0,78,0.00,,,0.00,,2013-07-02 05:01:00,
2013-07-02 01:22:00,63.0,56.0,30.03,ENE,67,0.0,0.0,79,0.00,,,0.00,,2013-07-02 05:22:00,
2013-07-02 01:32:00,63.0,56.0,30.02,ENE,67,0.0,0.0,79,0.00,,,0.00,,2013-07-02 05:32:00,
2013-07-02 01:43:00,63.0,56.0,30.02,NNE,22,0.0,1.0,79,0.00,,,0.00,,2013-07-02 05:43:00,
2013-07-02 01:53:00,63.0,56.0,30.02,NNE,22,0.0,1.0,79,0.00,,,0.00,,2013-07-02 05:53:00,
2013-07-02 02:34:00,63.0,57.0,30.02,NE,45,0.0,0.0,80,0.00,,,0.00,,2013-07-02 06:34:00,
2013-07-02 02:53:00,63.0,57.0,30.02,NNW,337,0.0,0.0,80,0.00,,,0.00,,2013-07-02 06:53:00,
2013-07-02 03:01:00,62.0,56.0,30.02,North,0,0.0,0.0,80,0.00,,,0.00,,2013-07-02 07:01:00,
2013-07-02 03:34:00,62.0,56.0,30.01,East,90,0.0,0.0,80,0.00,,,0.00,,2013-07-02 07:34:00,
2013-07-02 03:44:00,62.0,56.0,30.01,East,90,0.0,0.0,81,0.04,,,0.04,,2013-07-02 07:44:00,
2013-07-02 03:53:00,62.0,56.0,30.01,East,90,0.0,0.0,81,0.04,,,0.04,,2013-07-02 07:53:00,
2013-07-02 04:02:00,61.0,55.0,30.01,ENE,67,0.0,0.0,81,0.04,,,0.04,,2013-07-02 08:02:00,
2013-07-02 04:22:00,61.0,55.0,30.01,ENE,67,0.0,0.0,82,0.06,,,0.06,,2013-07-02 08:22:00,
2013-07-02 04:44:00,60.0,55.0,30.01,ENE,67,0.0,0.0,83,0.02,,,0.06,,2013-07-02 08:44:00,
2013-07-02 04:53:00,60.0,55.0,30.01,ENE,67,0.0,0.0,83,0.02,,,0.06,,2013-07-02 08:53:00,
2013-07-02 05:02:00,60.0,55.0,30.01,ENE,67,0.0,0.0,83,0.02,,,0.06,,2013-07-02 09:02:00,
2013-07-02 05:11:00,60.0,55.0,30.01,North,-999,-999.0,-999.0,83,0.02,,,0.06,,2013-07-02 09:11:00,
2013-07-02 05:23:00,60.0,55.0,30.01,North,-999,-999.0,-999.0,83,0.02,,,0.06,,2013-07-02 09:23:00,
2013-07-02 05:33:00,60.0,55.0,30.01,North,-999,-999.0,-999.0,83,0.02,,,0.06,,2013-07-02 09:33:00,
2013-07-02 05:43:00,60.0,55.0,30.01,North,-999,-999.0,-999.0,83,0.02,,,0.06,,2013-07-02 09:43:00,
2013-07-02 07:52:00,60.0,56.0,30.03,ENE,67,1.0,1.0,87,0.00,,,0.06,,2013-07-02 11:52:00,
2013-07-02 08:01:00,60.0,56.0,30.03,SSE,157,0.0,0.0,87,0.00,,,0.06,,2013-07-02 12:01:00,
2013-07-02 08:23:00,60.0,56.0,30.03,NE,45,0.0,0.0,87,0.00,,,0.06,,2013-07-02 12:23:00,
2013-07-02 08:33:00,60.0,56.0,30.03,NE,45,0.0,0.0,87,0.00,,,0.06,,2013-07-02 12:33:00,
2013-07-02 08:43:00,60.0,56.0,30.03,NE,45,0.0,0.0,87,0.00,,,0.06,,2013-07-02 12:43:00,
2013-07-02 08:52:00,60.0,56.0,30.03,ENE,67,0.0,0.0,87,0.00,,,0.06,,2013-07-02 12:52:00,
2013-07-02 09:01:00,60.0,56.0,30.03,ENE,67,0.0,0.0,87,0.00,,,0.06,,2013-07-02 13:01:00,
2013-07-02 09:43:00,60.0,56.0,30.04,ENE,67,0.0,0.0,88,0.00,,,0.06,,2013-07-02 13:43:00,
2013-07-02 10:02:00,60.0,56.0,30.04,ENE,67,0.0,0.0,88,0.00,,,0.06,,2013-07-02 14:02:00,
2013-07-02 10:43:00,61.0,57.0,30.05,East,90,0.0,0.0,88,0.00,,,0.06,,2013-07-02 14:43:00,
2013-07-02 10:53:00,61.0,57.0,30.05,East,90,0.0,0.0,88,0.00,,,0.06,,2013-07-02 14:53:00,
2013-07-02 11:11:00,61.0,57.0,30.05,East,90,0.0,0.0,88,0.00,,,0.06,,2013-07-02 15:11:00,
2013-07-02 11:22:00,61.0,57.0,30.05,East,90,0.0,0.0,88,0.00,,,0.06,,2013-07-02 15:22:00,
2013-07-02 11:33:00,61.0,57.0,30.05,SE,135,0.0,0.0,88,0.00,,,0.06,,2013-07-02 15:33:00,
2013-07-02 11:44:00,61.0,57.0,30.05,SE,135,0.0,0.0,88,0.00,,,0.06,,2013-07-02 15:44:00,
2013-07-02 11:53:00,60.0,56.0,30.05,SSW,202,0.0,0.0,88,0.00,,,0.06,,2013-07-02 15:53:00,
2013-07-02 12:01:00,60.0,56.0,30.05,SE,135,0.0,0.0,88,0.00,,,0.06,,2013-07-02 16:01:00,
2013-07-02 12:12:00,60.0,57.0,30.05,ESE,112,0.0,0.0,89,0.00,,,0.06,,2013-07-02 16:12:00,
2013-07-02 12:43:00,59.0,56.0,30.05,East,90,0.0,0.0,89,0.00,,,0.06,,2013-07-02 16:43:00,
2013-07-02 13:02:00,58.0,55.0,30.05,SW,225,0.0,0.0,89,0.00,,,0.06,,2013-07-02 17:02:00,
2013-07-02 14:43:00,60.0,56.0,30.05,West,270,0.0,0.0,88,0.00,,,0.06,,2013-07-02 18:43:00,
2013-07-02 14:53:00,60.0,56.0,30.04,West,270,0.0,0.0,88,0.00,,,0.06,,2013-07-02 18:53:00,
2013-07-02 15:12:00,61.0,57.0,30.04,East,90,0.0,0.0,88,0.00,,,0.06,,2013-07-02 19:12:00,
2013-07-02 15:22:00,61.0,57.0,30.03,East,90,0.0,0.0,88,0.00,,,0.06,,2013-07-02 19:22:00,
2013-07-02 15:34:00,62.0,58.0,30.03,ESE,112,0.0,0.0,88,0.00,,,0.06,,2013-07-02 19:34:00,
2013-07-02 15:43:00,63.0,59.0,30.03,ESE,112,0.0,0.0,88,0.00,,,0.06,,2013-07-02 19:43:00,
2013-07-02 15:53:00,63.0,59.0,30.03,ESE,112,0.0,0.0,88,0.00,,,0.06,,2013-07-02 19:53:00,
2013-07-02 16:11:00,65.0,61.0,30.03,North,0,0.0,0.0,88,0.00,,,0.06,,2013-07-02 20:11:00,
2013-07-02 16:22:00,66.0,62.0,30.02,North,0,0.0,0.0,88,0.00,,,0.06,,2013-07-02 20:22:00,
2013-07-02 16:33:00,67.0,63.0,30.02,WSW,247,0.0,0.0,88,0.00,,,0.06,,2013-07-02 20:33:00,
2013-07-02 16:43:00,68.0,64.0,30.02,WSW,247,0.0,0.0,87,0.00,,,0.06,,2013-07-02 20:43:00,
2013-07-02 16:52:00,69.0,65.0,30.02,NW,315,0.0,0.0,87,0.00,,,0.06,,2013-07-02 20:52:00,
2013-07-02 17:02:00,69.0,65.0,30.02,NW,315,0.0,0.0,87,0.00,,,0.06,,2013-07-02 21:02:00,
2013-07-02 17:11:00,70.0,66.0,30.01,West,270,0.0,0.0,87,0.00,,,0.06,,2013-07-02 21:11:00,
2013-07-02 17:22:00,71.0,67.0,30.01,West,270,0.0,0.0,87,0.00,,,0.06,,2013-07-02 21:22:00,
2013-07-02 17:33:00,71.0,67.0,30.01,West,270,0.0,0.0,86,0.00,,,0.06,,2013-07-02 21:33:00,
2013-07-02 17:44:00,72.0,68.0,30.01,NW,315,0.0,0.0,86,0.00,,,0.06,,2013-07-02 21:44:00,
2013-07-02 17:52:00,72.0,68.0,30.01,NW,315,0.0,0.0,86,0.00,,,0.06,,2013-07-02 21:52:00,
2013-07-02 18:01:00,72.0,67.0,30.01,WNW,292,0.0,0.0,85,0.00,,,0.06,,2013-07-02 22:01:00,
2013-07-02 18:22:00,73.0,68.0,30.01,West,270,0.0,0.0,85,0.00,,,0.06,,2013-07-02 22:22:00,
2013-07-02 18:43:00,73.0,68.0,30.00,West,270,0.0,0.0,84,0.00,,,0.06,,2013-07-02 22:43:00,
2013-07-02 18:53:00,72.0,67.0,30.00,West,270,0.0,0.0,84,0.00,,,0.06,,2013-07-02 22:53:00,
2013-07-02 19:01:00,72.0,67.0,30.00,West,270,0.0,0.0,84,0.00,,,0.06,,2013-07-02 23:01:00,
2013-07-02 19:12:00,72.0,67.0,30.00,West,270,0.0,0.0,84,0.00,,,0.06,,2013-07-02 23:12:00,
2013-07-02 19:22:00,72.0,67.0,30.00,SSW,202,0.0,0.0,84,0.00,,,0.06,,2013-07-02 23:22:00,
2013-07-02 19:33:00,72.0,67.0,30.00,SSW,202,0.0,0.0,84,0.00,,,0.06,,2013-07-02 23:33:00,
2013-07-02 19:52:00,73.0,68.0,30.02,WSW,247,0.0,0.0,84,0.00,,,0.06,,2013-07-02 23:52:00,
2013-07-02 20:01:00,72.0,67.0,30.02,WSW,247,0.0,0.0,84,0.00,,,0.06,,2013-07-03 00:01:00,
2013-07-02 20:11:00,72.0,67.0,30.01,West,270,0.0,0.0,84,0.00,,,0.06,,2013-07-03 00:11:00,
2013-07-02 20:33:00,72.0,67.0,30.01,West,270,0.0,0.0,84,0.00,,,0.06,,2013-07-03 00:33:00,
2013-07-02 20:44:00,72.0,67.0,30.00,West,270,0.0,0.0,84,0.00,,,0.06,,2013-07-03 00:44:00,
2013-07-02 20:52:00,72.0,67.0,30.01,SSW,202,0.0,0.0,84,0.00,,,0.06,,2013-07-03 00:52:00,
2013-07-02 21:01:00,72.0,67.0,30.01,SSW,202,0.0,0.0,83,0.00,,,0.06,,2013-07-03 01:01:00,
2013-07-02 21:11:00,71.0,66.0,30.02,NNW,337,0.0,0.0,84,0.00,,,0.06,,2013-07-03 01:11:00,
2013-07-02 21:22:00,70.0,65.0,30.02,NNW,337,0.0,0.0,84,0.00,,,0.06,,2013-07-03 01:22:00,
2013-07-02 21:33:00,70.0,65.0,30.02,NNW,337,0.0,0.0,84,0.00,,,0.06,,2013-07-03 01:33:00,
2013-07-02 21:42:00,69.0,64.0,30.02,NNW,337,0.0,0.0,84,0.00,,,0.06,,2013-07-03 01:42:00,
2013-07-02 21:56:00,69.0,64.0,30.03,NNW,337,0.0,0.0,84,0.00,,,0.06,,2013-07-03 01:56:00,
2013-07-02 22:05:00,69.0,64.0,30.03,NNW,337,0.0,0.0,84,0.00,,,0.06,,2013-07-03 02:05:00,
2013-07-02 22:14:00,68.0,63.0,30.02,NNW,337,0.0,0.0,85,0.00,,,0.06,,2013-07-03 02:14:00,
2013-07-02 22:28:00,68.0,63.0,30.02,NNW,337,0.0,0.0,85,0.00,,,0.06,,2013-07-03 02:28:00,
2013-07-02 22:39:00,68.0,63.0,30.02,NNW,337,0.0,0.0,85,0.00,,,0.06,,2013-07-03 02:39:00,
2013-07-02 22:44:00,68.0,63.0,30.02,NNW,337,0.0,0.0,85,0.00,,,0.06,,2013-07-03 02:44:00,